Powrót do katalogu

STARLINK-32336

AktywnyŁącznośćVLEO
NORAD 61004·PAYLOAD·🇺🇸 United States

Wystrzelony Sep 5, 2024 z Cape Canaveral Space Force Station

Loading…

Następne Przeloty (najbliższe 24 godziny)

TLE

ŚwieżeSource: CelesTrak SupGP

Epoka: Sep 15, 2026, 02:18 UTC

1 61004C 24158Q   26258.09631944 -.00008830  00000+0 -26122-3 0  2584
2 61004  53.1574 262.7252 0001192 104.4453 235.3561 15.34355805    13

Śledź STARLINK-32336 w czasie rzeczywistym z AllMySat

Download on the App Store